Regional Weather Roundup
Issued by NWS

Home | Current Version | Previous Version | Graphics & Text | Print | Product List | Glossary On
Versions: 1 2 3 4 5 6 7 8 9 10 11 12 13 14 15 16 17 18 19 20 21 22 23 24 25 26 27 28 29 30 31 32 33 34 35 36 37 38 39 40 41 42 43 44 45 46 47 48 49 50
000
ASUS43 KDTX 250610
RWRMI
MICHIGAN HOURLY REGIONAL WEATHER ROUNDUP
NATIONAL WEATHER SERVICE DETROIT/PONTIAC MI
200 AM EDT SAT APR 25 2015

NOTE: "FAIR" INDICATES FEW OR NO CLOUDS BELOW 12,000 FEET WITH NO
SIGNIFICANT WEATHER AND/OR OBSTRUCTION TO VISIBILITY.

MIZ047>049-052>055-059>063-066>070-074>076-081>083-250700-
SOUTHEAST LOWER MICHIGAN

CITY           SKY/WX    TMP DP  RH WIND       PRES   REMARKS
ADRIAN         LGT RAIN  43  37  79 E14       29.99F
6HR MIN TEMP:  43; 6HR MAX TEMP:  56; 6HR PCP: TRACE;

ALMA           CLOUDY    37  30  74 NE6       30.03R
ANN ARBOR      LGT RAIN  42  36  79 S5        30.01S
BAD AXE        MOCLDY    32  24  72 CALM      30.04R
DETROIT CITY   CLOUDY    39  28  64 NE5       30.02S
6HR MIN TEMP:  39; 6HR MAX TEMP:  48;

DETROIT        LGT RAIN  43  33  68 S5        30.02F
6HR MIN TEMP:  43; 6HR MAX TEMP:  55; 6HR PCP: TRACE;

FLINT          MOCLDY    38  23  55 E12       30.02R
6HR MIN TEMP:  38; 6HR MAX TEMP:  52;

GROSSE ILE     LGT RAIN  43  36  75 CALM      30.00F
HILLSDALE      LGT RAIN  43  38  82 E9        29.97S
HOWELL         LGT RAIN  43  33  68 S6        30.00R
6HR MIN TEMP:  43; 6HR MAX TEMP:  51;


CITY           SKY/WX    TMP DP  RH WIND       PRES   REMARKS
JACKSON        LGT RAIN  41  37  86 E7        29.98F
6HR MIN TEMP:  41; 6HR MAX TEMP:  55; 6HR PCP:  0.13;

LAMBERTVILLE   DRIZZLE   45  34  65 NE8       29.99F
LANSING        LGT RAIN  43  36  76 NE7       29.99F
6HR MIN TEMP:  43; 6HR MAX TEMP:  51; 6HR PCP: TRACE;

LAPEER         NOT AVBL
MASON          CLOUDY    43  35  72 CALM      29.99S
MONROE         LGT RAIN  43  37  81 CALM      30.01S
PONTIAC        CLOUDY    37  24  59 E7        30.00S
6HR MIN TEMP:  37; 6HR MAX TEMP:  50;

PORT HOPE        N/A     35  24  64 SE8       30.02S
6HR MIN TEMP:  35; 6HR MAX TEMP:  36;

PORT HURON       N/A     36  21  55 CALM      30.02S
TRI CITIES       N/A     37  23  56 E7        30.03R
6HR MIN TEMP:  37; 6HR MAX TEMP:  51;

YPSILANTI      LGT RAIN  45  34  65 SW5       30.02S
6HR MIN TEMP:  45; 6HR MAX TEMP:  55; 6HR PCP: TRACE;

$$
MIZ043>046-050>051-056>058-064>065-071>073-077>080-250700-
SOUTHWEST LOWER MICHIGAN

CITY           SKY/WX    TMP DP  RH WIND       PRES   REMARKS
BATTLE CREEK   LGT RAIN  41  38  89 E7        29.98S
6HR MIN TEMP:  41; 6HR MAX TEMP:  57; 6HR PCP:  0.33;

BENTON HARBOR  CLOUDY    42  38  85 E12       29.93S
6HR MIN TEMP:  42; 6HR MAX TEMP:  46; 6HR PCP:  0.03;

BIG RAPIDS     CLOUDY    42  24  49 E5        29.99S
6HR MIN TEMP:  42; 6HR MAX TEMP:  52;

COLDWATER      LGT RAIN  42  38  86 NE9       29.96F
6HR MIN TEMP:  42; 6HR MAX TEMP:  54;

HOLLAND        LGT RAIN  44  41  89 E14       29.97F
6HR MIN TEMP:  42; 6HR MAX TEMP:  54; 6HR PCP:  0.14;

GRAND RAPIDS   CLOUDY    43  36  76 S6        29.99S
6HR MIN TEMP:  43; 6HR MAX TEMP:  53; 6HR PCP: TRACE;

KALAMAZOO      CLOUDY    42  37  82 NE8       29.97R
6HR MIN TEMP:  42; 6HR MAX TEMP:  58; 6HR PCP:  0.18;

MARSHALL       LGT RAIN  39  37  91 NE3       29.97F
MUSKEGON       CLOUDY    42  38  85 NE6       29.99F
6HR MIN TEMP:  42; 6HR MAX TEMP:  50; 6HR PCP:  0.01;

$$
MIZ016>042-250700-
NORTHERN LOWER MICHIGAN

CITY           SKY/WX    TMP DP  RH WIND       PRES   REMARKS
ALPENA           N/A     26  21  81 SW6       30.03F
6HR MIN TEMP:  23; 6HR MAX TEMP:  41;

BEAVER ISLAND    N/A     30  24  80 NE5       30.03F
6HR MIN TEMP:  26; 6HR MAX TEMP:  37;

BELLAIRE         N/A     36  21  54 CALM      30.03S
6HR MIN TEMP:  35; 6HR MAX TEMP:  43;

CADILLAC       CLOUDY    37  19  48 E6        29.98S
CHARLEVOIX       N/A     34  22  61 CALM      30.06S
6HR MIN TEMP:  33; 6HR MAX TEMP:  37;

FRANKFORT        N/A     42  12  29 CALM      30.01R
GAYLORD          N/A     31  18  58 NE3       30.00S
6HR MIN TEMP:  30; 6HR MAX TEMP:  40;

GRAYLING         N/A     32  20  60 CALM      30.02R
6HR MIN TEMP:  32; 6HR MAX TEMP:  44;

HARBOR SPRINGS   N/A     29  21  70 NE5       30.03S
HOUGHTON LAKE  MOCLDY    34  20  56 SE5       30.01S
6HR MIN TEMP:  34; 6HR MAX TEMP:  45;

MANISTEE       CLOUDY    37  19  48 CALM      30.02R
OSCODA           N/A     27  22  84 CALM      30.03S
PELLSTON         N/A     22  18  85 CALM      30.04S
6HR MIN TEMP:  21; 6HR MAX TEMP:  40;

TRAVERSE CITY  CLOUDY    37  29  72 NE7       30.00F
6HR MIN TEMP:  37; 6HR MAX TEMP:  40;

$$
MIZ007>008-015-250700-
EASTERN UPPER MICHIGAN

CITY           SKY/WX    TMP DP  RH WIND       PRES   REMARKS
KINROSS          N/A     25  21  86 NW5       30.03S
6HR MIN TEMP:  25; 6HR MAX TEMP:  32;

MACKINAC ISLAN   N/A     30  18  60 N3        30.03S
6HR MIN TEMP:  28; 6HR MAX TEMP:  37;

NEWBERRY         N/A     26  19  75 N9        30.04S
S. S. MARIE      N/A     26  21  81 W3        30.03S
6HR MIN TEMP:  25; 6HR MAX TEMP:  33;

$$
MIZ004>006-011>014-085-250700-
CENTRAL UPPER MICHIGAN

CITY           SKY/WX    TMP DP  RH WIND       PRES   REMARKS
MANISTIQUE       N/A     31  20  63 NE3       30.03S
ESCANABA         N/A     37  25  60 CALM      30.02F
6HR MIN TEMP:  37; 6HR MAX TEMP:  37;

MENOMINEE      CLOUDY    37  25  60 NE3       30.01S
6HR MIN TEMP:  37; 6HR MAX TEMP:  39;

SAWYER-GWINN     N/A     30  18  61 N3        30.01S
$$
MIZ001>003-009>011-084-250700-
WESTERN UPPER MICHIGAN

CITY           SKY/WX    TMP DP  RH WIND       PRES   REMARKS
IRON MOUNTAIN  CLOUDY    38  24  57 E3        29.98F
6HR MIN TEMP:  38; 6HR MAX TEMP:  42;

HOUGHTON       CLOUDY    31  23  72 E8        30.01S
6HR MIN TEMP:  31; 6HR MAX TEMP:  33;

COPPER HARBOR    N/A     29  24  82 CALM      30.04F
6HR MIN TEMP:  29; 6HR MAX TEMP:  36;

IRONWOOD       CLOUDY    39  25  56 E3        29.92S
6HR MIN TEMP:  39; 6HR MAX TEMP:  41;

$$

ABBREVIATIONS USED IN REMARKS
   TC - TEMPERATURE IN CELSIUS
  WCI - WIND CHILL INDEX
   HX - HEAT INDEX
  VSB - VISIBILITY




USA.gov is the U.S. government's official web portal to all federal, state and local government web resources and services.